| time (UTC) | temp F | wind direction | speed knots | gust knots | rain 1hr in | rain 24hr in | rain mn in | humidity % | barometer mb |
| 20260505041522 | 59 | 199 | 0.0 | 0.0 | 0.00 | 0.00 | 0.00 | 58 | 1011.1 |
| 20260505041004 | 60 | 199 | 0.0 | 0.0 | 0.00 | 0.00 | 0.00 | 58 | 1011.1 |
| 20260505040510 | 60 | 199 | 0.0 | 0.0 | 0.00 | 0.00 | 0.00 | 58 | 1011.1 |
| 20260505040004 | 60 | 199 | 0.0 | 0.0 | 0.00 | 0.00 | 0.00 | 58 | 1011.0 |
| 20260505035505 | 61 | 199 | 0.0 | 0.0 | 0.00 | 0.00 | 0.00 | 57 | 1010.9 |
| 20260505035003 | 61 | 199 | 0.0 | 0.0 | 0.00 | 0.00 | 0.00 | 57 | 1010.9 |
| 20260505034506 | 61 | 199 | 0.0 | 0.0 | 0.00 | 0.00 | 0.00 | 56 | 1010.9 |
| 20260505034006 | 61 | 199 | 0.0 | 1.7 | 0.00 | 0.00 | 0.00 | 56 | 1010.9 |
| 20260505033503 | 61 | 199 | 0.0 | 1.7 | 0.00 | 0.00 | 0.00 | 55 | 1010.9 |
| 20260505033010 | 62 | 192 | 0.0 | 0.0 | 0.00 | 0.00 | 0.00 | 55 | 1010.9 |
| 20260505032505 | 62 | 202 | 0.0 | 0.0 | 0.00 | 0.00 | 0.00 | 55 | 1010.9 |
| 20260505032002 | 62 | 202 | 0.0 | 0.0 | 0.00 | 0.00 | 0.00 | 55 | 1010.9 |
| 20260505031515 | 62 | 201 | 0.0 | 0.0 | 0.00 | 0.00 | 0.00 | 54 | 1010.9 |
| 20260505031011 | 62 | 201 | 0.0 | 1.7 | 0.00 | 0.00 | 0.00 | 53 | 1010.9 |
| 20260505030510 | 62 | 200 | 0.0 | 1.7 | 0.00 | 0.00 | 0.00 | 53 | 1011.0 |
| 20260505030023 | 62 | 188 | 0.0 | 1.7 | 0.00 | 0.00 | 0.00 | 54 | 1010.9 |
| 20260505025508 | 62 | 182 | 0.0 | 1.7 | 0.00 | 0.00 | 0.00 | 53 | 1011.0 |
| 20260505025009 | 62 | 200 | 0.0 | 1.7 | 0.00 | 0.00 | 0.00 | 53 | 1011.0 |
| 20260505024505 | 63 | 16 | 0.0 | 0.0 | 0.00 | 0.00 | 0.00 | 52 | 1011.0 |
| 20260505024002 | 63 | 15 | 0.0 | 0.0 | 0.00 | 0.00 | 0.00 | 52 | 1011.0 |
| 20260505023503 | 63 | 15 | 0.0 | 0.9 | 0.00 | 0.00 | 0.00 | 52 | 1010.9 |
| 20260505023012 | 63 | 15 | 0.0 | 0.9 | 0.00 | 0.00 | 0.00 | 51 | 1011.0 |
| 20260505022504 | 64 | 164 | 0.0 | 0.9 | 0.00 | 0.00 | 0.00 | 51 | 1010.8 |
| 20260505022004 | 64 | 225 | 0.0 | 0.0 | 0.00 | 0.00 | 0.00 | 50 | 1010.9 |
| 20260505021516 | 64 | 225 | 0.0 | 0.0 | 0.00 | 0.00 | 0.00 | 50 | 1010.9 |
| 20260505021004 | 65 | 204 | 0.0 | 0.0 | 0.00 | 0.00 | 0.00 | 49 | 1010.9 |
| 20260505020504 | 65 | 204 | 0.0 | 0.0 | 0.00 | 0.00 | 0.00 | 48 | 1010.9 |
| 20260505020018 | 65 | 215 | 0.0 | 0.0 | 0.00 | 0.00 | 0.00 | 49 | 1010.9 |
| 20260505015508 | 65 | 194 | 0.0 | 0.0 | 0.00 | 0.00 | 0.00 | 48 | 1010.7 |
| 20260505015007 | 66 | 194 | 0.0 | 1.7 | 0.00 | 0.00 | 0.00 | 47 | 1010.7 |
| 20260505014523 | 66 | 181 | 0.0 | 1.7 | 0.00 | 0.00 | 0.00 | 47 | 1010.7 |
| 20260505014007 | 66 | 172 | 0.0 | 0.0 | 0.00 | 0.00 | 0.00 | 46 | 1010.6 |
| 20260505013503 | 67 | 172 | 0.0 | 1.7 | 0.00 | 0.00 | 0.00 | 45 | 1010.6 |
| 20260505013008 | 67 | 199 | 0.0 | 1.7 | 0.00 | 0.00 | 0.00 | 45 | 1010.6 |
| 20260505012503 | 67 | 173 | 0.0 | 1.7 | 0.00 | 0.00 | 0.00 | 44 | 1010.6 |
| 20260505012004 | 68 | 225 | 0.0 | 2.6 | 0.00 | 0.00 | 0.00 | 44 | 1010.6 |
| 20260505011511 | 68 | 214 | 0.0 | 2.6 | 0.00 | 0.00 | 0.00 | 44 | 1010.5 |
| 20260505011008 | 68 | 252 | 0.0 | 2.6 | 0.00 | 0.00 | 0.00 | 43 | 1010.5 |
| 20260505010505 | 68 | 225 | 0.0 | 1.7 | 0.00 | 0.00 | 0.00 | 42 | 1010.4 |
| 20260505010029 | 69 | 198 | 0.0 | 1.7 | 0.00 | 0.00 | 0.00 | 42 | 1010.4 |
| 20260505005506 | 69 | 188 | 0.0 | 1.7 | 0.00 | 0.00 | 0.00 | 41 | 1010.3 |
| 20260505005006 | 69 | 215 | 0.0 | 2.6 | 0.00 | 0.00 | 0.00 | 41 | 1010.3 |
| 20260505004521 | 70 | 178 | 0.0 | 2.6 | 0.00 | 0.00 | 0.00 | 43 | 1010.2 |
| 20260505004009 | 70 | 166 | 0.0 | 2.6 | 0.00 | 0.00 | 0.00 | 40 | 1010.2 |
| 20260505003510 | 70 | 214 | 0.0 | 3.5 | 0.00 | 0.00 | 0.00 | 39 | 1010.2 |
| 20260505003025 | 70 | 153 | 0.0 | 3.5 | 0.00 | 0.00 | 0.00 | 39 | 1010.2 |
| 20260505002504 | 71 | 186 | 0.0 | 1.7 | 0.00 | 0.00 | 0.00 | 39 | 1010.2 |
| 20260505002004 | 71 | 184 | 0.0 | 3.5 | 0.00 | 0.00 | 0.00 | 38 | 1010.1 |
| 20260505001510 | 71 | 205 | 0.9 | 3.5 | 0.00 | 0.00 | 0.00 | 38 | 1010.2 |
| 20260505001004 | 71 | 171 | 0.0 | 5.2 | 0.00 | 0.00 | 0.00 | 37 | 1010.2 |
| 20260505000504 | 72 | 292 | 0.0 | 5.2 | 0.00 | 0.00 | 0.00 | 38 | 1010.2 |
| 20260505000032 | 72 | 192 | 0.0 | 4.3 | 0.00 | 0.00 | 0.00 | 37 | 1010.1 |
| 20260504235506 | 72 | 244 | 1.7 | 4.3 | 0.00 | 0.00 | 0.00 | 36 | 1010.0 |
| 20260504235006 | 72 | 163 | 0.9 | 4.3 | 0.00 | 0.00 | 0.00 | 36 | 1010.0 |
| 20260504234518 | 73 | 216 | 0.9 | 4.3 | 0.00 | 0.00 | 0.00 | 35 | 1010.1 |
| 20260504234004 | 73 | 202 | 0.9 | 3.5 | 0.00 | 0.00 | 0.00 | 35 | 1010.0 |
| 20260504233509 | 73 | 221 | 0.9 | 4.3 | 0.00 | 0.00 | 0.00 | 36 | 1010.0 |
| 20260504233020 | 73 | 204 | 0.0 | 5.2 | 0.00 | 0.00 | 0.00 | 35 | 1009.9 |
| 20260504232509 | 73 | 234 | 2.6 | 5.2 | 0.00 | 0.00 | 0.00 | 34 | 1009.8 |
| 20260504232011 | 74 | 240 | 0.9 | 5.2 | 0.00 | 0.00 | 0.00 | 34 | 1009.8 |
| 20260504231524 | 74 | 283 | 0.9 | 6.1 | 0.00 | 0.00 | 0.00 | 34 | 1009.8 |
| 20260504231003 | 74 | 202 | 1.7 | 6.1 | 0.00 | 0.00 | 0.00 | 34 | 1009.8 |
| 20260504230504 | 75 | 344 | 0.9 | 7.8 | 0.00 | 0.00 | 0.00 | 34 | 1009.9 |
| 20260504230011 | 75 | 234 | 0.9 | 8.7 | 0.00 | 0.00 | 0.00 | 33 | 1010.0 |
| 20260504225504 | 75 | 38 | 0.9 | 10.4 | 0.00 | 0.00 | 0.00 | 33 | 1009.9 |
| 20260504225002 | 75 | 217 | 2.6 | 9.6 | 0.00 | 0.00 | 0.00 | 33 | 1009.9 |
| 20260504224516 | 76 | 279 | 1.7 | 8.7 | 0.00 | 0.00 | 0.00 | 32 | 1009.8 |
| 20260504224004 | 76 | 102 | 1.7 | 8.7 | 0.00 | 0.00 | 0.00 | 31 | 1009.8 |
| 20260504223507 | 77 | 279 | 0.9 | 8.7 | 0.00 | 0.00 | 0.00 | 32 | 1009.8 |
| 20260504223020 | 77 | 267 | 2.6 | 8.7 | 0.00 | 0.00 | 0.00 | 31 | 1009.9 |
| 20260504222508 | 77 | 168 | 3.5 | 9.6 | 0.00 | 0.00 | 0.00 | 31 | 1009.8 |
| 20260504222010 | 77 | 285 | 1.7 | 9.6 | 0.00 | 0.00 | 0.00 | 31 | 1009.8 |
| 20260504221539 | 78 | 311 | 1.7 | 9.6 | 0.00 | 0.00 | 0.00 | 30 | 1009.7 |
| 20260504221007 | 78 | 177 | 2.6 | 9.6 | 0.00 | 0.00 | 0.00 | 30 | 1009.7 |
| 20260504220511 | 78 | 261 | 1.7 | 7.8 | 0.00 | 0.00 | 0.00 | 30 | 1009.6 |
| 20260504220008 | 78 | 276 | 1.7 | 7.8 | 0.00 | 0.00 | 0.00 | 30 | 1009.6 |
| 20260504215507 | 78 | 249 | 2.6 | 8.7 | 0.00 | 0.00 | 0.00 | 29 | 1009.7 |
| 20260504215009 | 78 | 292 | 3.5 | 8.7 | 0.00 | 0.00 | 0.00 | 29 | 1009.6 |
| 20260504214512 | 78 | 229 | 3.5 | 7.8 | 0.00 | 0.00 | 0.00 | 28 | 1009.8 |
| 20260504214007 | 78 | 161 | 3.5 | 9.6 | 0.00 | 0.00 | 0.00 | 29 | 1009.7 |
| 20260504213504 | 78 | 254 | 2.6 | 9.6 | 0.00 | 0.00 | 0.00 | 28 | 1009.7 |
| 20260504213019 | 78 | 282 | 2.6 | 9.6 | 0.00 | 0.00 | 0.00 | 29 | 1009.8 |
| 20260504212506 | 79 | 246 | 2.6 | 10.4 | 0.00 | 0.00 | 0.00 | 28 | 1009.8 |
| 20260504212010 | 79 | 119 | 1.7 | 10.4 | 0.00 | 0.00 | 0.00 | 29 | 1009.6 |
| 20260504211523 | 79 | 227 | 1.7 | 8.7 | 0.00 | 0.00 | 0.00 | 28 | 1009.8 |
| 20260504211009 | 79 | 319 | 0.9 | 7.8 | 0.00 | 0.00 | 0.00 | 28 | 1009.8 |
| 20260504210508 | 79 | 289 | 2.6 | 7.8 | 0.00 | 0.00 | 0.00 | 28 | 1009.9 |
| 20260504210028 | 79 | 226 | 2.6 | 7.8 | 0.00 | 0.00 | 0.00 | 29 | 1009.9 |
| 20260504205507 | 79 | 304 | 1.7 | 7.8 | 0.00 | 0.00 | 0.00 | 28 | 1009.9 |
| 20260504205003 | 79 | 138 | 4.3 | 7.8 | 0.00 | 0.00 | 0.00 | 28 | 1009.9 |
| 20260504204511 | 79 | 350 | 0.9 | 14.8 | 0.00 | 0.00 | 0.00 | 28 | 1009.9 |
| 20260504204004 | 79 | 236 | 2.6 | 14.8 | 0.00 | 0.00 | 0.00 | 28 | 1010.1 |
| 20260504203505 | 80 | 188 | 3.5 | 8.7 | 0.00 | 0.00 | 0.00 | 27 | 1010.0 |
| 20260504203018 | 80 | 169 | 1.7 | 9.6 | 0.00 | 0.00 | 0.00 | 29 | 1010.2 |
| 20260504202507 | 79 | 207 | 0.0 | 14.8 | 0.00 | 0.00 | 0.00 | 28 | 1010.2 |
| 20260504202008 | 80 | 179 | 6.1 | 14.8 | 0.00 | 0.00 | 0.00 | 26 | 1010.2 |
| 20260504201524 | 80 | 157 | 1.7 | 12.2 | 0.00 | 0.00 | 0.00 | 28 | 1010.2 |
| 20260504201011 | 80 | 269 | 2.6 | 12.2 | 0.00 | 0.00 | 0.00 | 28 | 1010.2 |
| 20260504200513 | 80 | 229 | 2.6 | 9.6 | 0.00 | 0.00 | 0.00 | 28 | 1010.4 |
| 20260504200026 | 80 | 146 | 2.6 | 5.2 | 0.00 | 0.00 | 0.00 | 27 | 1010.4 |
| 20260504195508 | 80 | 251 | 1.7 | 3.5 | 0.00 | 0.00 | 0.00 | 28 | 1010.4 |
| 20260504195013 | 80 | 20 | 1.7 | 8.7 | 0.00 | 0.00 | 0.00 | 28 | 1010.6 |
| 20260504194531 | 79 | 225 | 3.5 | 8.7 | 0.00 | 0.00 | 0.00 | 28 | 1010.6 |
| 20260504194006 | 79 | 63 | 1.7 | 8.7 | 0.00 | 0.00 | 0.00 | 29 | 1010.7 |
| 20260504193506 | 79 | 205 | 1.7 | 8.7 | 0.00 | 0.00 | 0.00 | 28 | 1010.8 |
| 20260504193014 | 78 | 268 | 2.6 | 6.1 | 0.00 | 0.00 | 0.00 | 29 | 1010.8 |
| 20260504192506 | 78 | 246 | 2.6 | 11.3 | 0.00 | 0.00 | 0.00 | 30 | 1010.9 |
| 20260504192012 | 77 | 279 | 3.5 | 14.8 | 0.00 | 0.00 | 0.00 | 29 | 1011.0 |
| 20260504191532 | 77 | 269 | 3.5 | 14.8 | 0.00 | 0.00 | 0.00 | 29 | 1011.1 |
| 20260504191008 | 78 | 287 | 5.2 | 14.8 | 0.00 | 0.00 | 0.00 | 28 | 1011.1 |
| 20260504190504 | 77 | 239 | 3.5 | 7.8 | 0.00 | 0.00 | 0.00 | 30 | 1011.2 |
| 20260504190006 | 77 | 198 | 3.5 | 9.6 | 0.00 | 0.00 | 0.00 | 29 | 1011.1 |
| 20260504185503 | 77 | 255 | 4.3 | 9.6 | 0.00 | 0.00 | 0.00 | 28 | 1011.3 |
| 20260504185004 | 77 | 286 | 3.5 | 13.9 | 0.00 | 0.00 | 0.00 | 28 | 1011.5 |
| 20260504184516 | 77 | 249 | 6.1 | 13.9 | 0.00 | 0.00 | 0.00 | 28 | 1011.4 |
| 20260504184006 | 77 | 268 | 3.5 | 10.4 | 0.00 | 0.00 | 0.00 | 29 | 1011.5 |
| 20260504183505 | 77 | 306 | 1.7 | 10.4 | 0.00 | 0.00 | 0.00 | 30 | 1011.5 |
| 20260504183014 | 77 | 276 | 4.3 | 14.8 | 0.00 | 0.00 | 0.00 | 30 | 1011.7 |
| 20260504182506 | 76 | 304 | 3.5 | 18.2 | 0.00 | 0.00 | 0.00 | 30 | 1011.9 |
| 20260504182007 | 77 | 260 | 6.1 | 18.2 | 0.00 | 0.00 | 0.00 | 30 | 1012.0 |
| 20260504181522 | 78 | 294 | 2.6 | 7.8 | 0.00 | 0.00 | 0.00 | 30 | 1012.0 |
| 20260504180959 | 77 | 219 | 3.5 | 9.6 | 0.00 | 0.00 | 0.00 | 29 | 1012.1 |
| 20260504180504 | 78 | 213 | 4.3 | 9.6 | 0.00 | 0.00 | 0.00 | 29 | 1012.1 |
| 20260504180007 | 77 | 244 | 1.7 | 8.7 | 0.00 | 0.00 | 0.00 | 31 | 1012.2 |
| 20260504175504 | 76 | 105 | 1.7 | 11.3 | 0.00 | 0.00 | 0.00 | 31 | 1012.2 |
| 20260504175003 | 76 | 271 | 4.3 | 11.3 | 0.00 | 0.00 | 0.00 | 29 | 1012.2 |
| 20260504174508 | 77 | 292 | 2.6 | 11.3 | 0.00 | 0.00 | 0.00 | 28 | 1012.2 |
| 20260504174004 | 77 | 224 | 2.6 | 7.8 | 0.00 | 0.00 | 0.00 | 27 | 1012.4 |
| 20260504173504 | 77 | 292 | 3.5 | 13.0 | 0.00 | 0.00 | 0.00 | 29 | 1012.4 |
| 20260504173011 | 77 | 19 | 1.7 | 13.0 | 0.00 | 0.00 | 0.00 | 30 | 1012.5 |
| 20260504172505 | 76 | 260 | 2.6 | 13.0 | 0.00 | 0.00 | 0.00 | 29 | 1012.6 |
| 20260504172006 | 76 | 236 | 3.5 | 9.6 | 0.00 | 0.00 | 0.00 | 28 | 1012.7 |
| 20260504171525 | 76 | 194 | 3.5 | 9.6 | 0.00 | 0.00 | 0.00 | 29 | 1012.7 |
| 20260504171006 | 76 | 186 | 2.6 | 7.8 | 0.00 | 0.00 | 0.00 | 28 | 1012.7 |
| 20260504170506 | 75 | 223 | 1.7 | 9.6 | 0.00 | 0.00 | 0.00 | 29 | 1012.7 |
| 20260504151007 | 70 | 165 | 0.9 | 8.7 | 0.00 | 0.00 | 0.00 | 33 | 1013.8 |
| 20260504150506 | 70 | 240 | 1.7 | 8.7 | 0.00 | 0.00 | 0.00 | 33 | 1013.9 |
| 20260504141006 | 65 | 327 | 1.7 | 6.1 | 0.00 | 0.00 | 0.00 | 41 | 1014.3 |
| 20260504140507 | 64 | 194 | 2.6 | 7.0 | 0.00 | 0.00 | 0.00 | 43 | 1014.4 |
| 20260504130506 | 59 | 251 | 2.6 | 8.7 | 0.00 | 0.00 | 0.00 | 49 | 1014.6 |
| 20260504110506 | 48 | 186 | 0.0 | 1.7 | 0.00 | 0.00 | 0.00 | 71 | 1015.4 |
| 20260504100503 | 48 | 185 | 0.0 | 0.0 | 0.00 | 0.00 | 0.00 | 73 | 1015.2 |
| 20260504082004 | 45 | 263 | 0.0 | 1.7 | 0.00 | 0.00 | 0.00 | 80 | 1015.5 |
| 20260504081525 | 45 | 262 | 0.0 | 1.7 | 0.00 | 0.00 | 0.00 | 81 | 1015.5 |
| 20260504081013 | 44 | 231 | 0.0 | 0.9 | 0.00 | 0.00 | 0.00 | 81 | 1015.5 |
| 20260504080508 | 44 | 235 | 0.0 | 0.0 | 0.00 | 0.00 | 0.00 | 81 | 1015.4 |
| 20260504050503 | 41 | 224 | 0.0 | 0.0 | 0.00 | 0.00 | 0.00 | 80 | 1015.8 |
| 20260504050022 | 41 | 224 | 0.0 | 0.0 | 0.00 | 0.00 | 0.00 | 80 | 1015.8 |
| 20260504045507 | 40 | 224 | 0.0 | 0.0 | 0.00 | 0.00 | 0.00 | 79 | 1015.7 |
| 20260504045009 | 41 | 224 | 0.0 | 0.0 | 0.00 | 0.00 | 0.00 | 79 | 1015.7 |
| 20260504044522 | 41 | 224 | 0.0 | 0.0 | 0.00 | 0.00 | 0.00 | 79 | 1015.8 |
| 20260504044010 | 41 | 224 | 0.0 | 0.0 | 0.00 | 0.00 | 0.00 | 79 | 1015.8 |
| 20260504043509 | 41 | 224 | 0.0 | 0.0 | 0.00 | 0.00 | 0.00 | 78 | 1015.7 |
| 20260504043024 | 41 | 224 | 0.0 | 0.0 | 0.00 | 0.00 | 0.00 | 78 | 1015.6 |
| 20260504042508 | 41 | 224 | 0.0 | 0.0 | 0.00 | 0.00 | 0.00 | 78 | 1015.6 |
| 20260504042010 | 41 | 224 | 0.0 | 0.0 | 0.00 | 0.00 | 0.00 | 77 | 1015.6 |